This is the latest recevied weather packets stored in our database for station/object N0ZRD-10. If no packets are shown the sender has not sent any weather packets the latest 10 day(s).
| Time | Temp. | Humidity | Pressure | Rain* | Wind** | Luminosity | Snow |
|---|---|---|---|---|---|---|---|
| 1777791098 | 8.33° C | 68% | - | 0 mm | - | - | - |
| 1777790496 | 8.89° C | 67% | - | 0 mm | - | - | - |
| 1777789894 | 8.89° C | 67% | - | 0 mm | - | - | - |
| 1777788692 | 8.89° C | 69% | - | 0 mm | - | - | - |
| 1777788093 | 9.44° C | 68% | - | 0 mm | - | - | - |
| 1777786290 | 10° C | 67% | - | 0 mm | - | - | - |
| 1777785687 | 10° C | 66% | - | 0 mm | - | - | - |
| 1777785087 | 10° C | 66% | - | 0 mm | - | - | - |
| 1777782679 | 10.56° C | 63% | - | 0 mm | - | - | - |
| 1777782079 | 10.56° C | 68% | - | 0 mm | - | - | - |
| 1777781477 | 10.56° C | 66% | - | 0 mm | - | - | - |
| 1777780878 | 10.56° C | 65% | - | 0 mm | - | - | - |
| 1777780275 | 10.56° C | 64% | - | 0 mm | - | - | - |
| 1777779674 | 10.56° C | 63% | - | 0 mm | - | - | - |
| 1777778473 | 11.11° C | 68% | - | 0 mm | - | - | - |
| 1777777872 | 11.11° C | 62% | - | 0 mm | - | - | - |
| 1777776670 | 12.22° C | 58% | - | 0 mm | - | - | - |
| 1777776070 | 12.78° C | 50% | - | 0 mm | - | - | - |
| 1777775468 | 13.33° C | 46% | - | 0 mm | - | - | - |
| 1777774867 | 13.89° C | 44% | - | 0 mm | - | - | - |
| 1777774264 | 13.89° C | 42% | - | 0 mm | - | - | - |
| 1777773663 | 13.89° C | 38% | - | 0 mm | - | - | - |
| 1777773061 | 14.44° C | 37% | - | 0 mm | - | - | - |
| 1777772461 | 14.44° C | 34% | - | 0 mm | - | - | - |
| 1777771859 | 14.44° C | 33% | - | 0 mm | - | - | - |
* Rain latest hour (hover to see other rain measurements)
** Current wind speed in m/s (hover to see current wind gust speed)